Location: Unspecified
(0.0000°N, 0.0000°E)
Time: 04:58:14
(UTC+02:00)

DELTA 2 R/B (1) - Visible Passes

Search period start: 24 June 2018 00:00
Search period end: 04 July 2018 00:00
Orbit: 790 x 803 km, 39.6° (Epoch: 23 June)

Date Brightness Start Highest point End Pass type
(mag) Time Alt. Az. Time Alt. Az. Time Alt. Az.
24 Jun 5.9 07:01:42 10° SSE 07:04:10 13° SE 07:06:37 10° ESE visible
24 Jun 4.6 21:23:16 10° WNW 21:28:21 37° SW 21:31:15 22° S visible
25 Jun 6.0 06:31:38 10° SSE 06:33:16 11° SE 06:34:54 10° SE visible
25 Jun 4.5 20:52:16 10° WNW 20:57:29 42° SW 21:02:23 12° SSE visible
26 Jun 4.3 20:21:19 10° WNW 20:26:37 48° SW 20:31:58 10° SSE visible
27 Jun 4.0 07:12:44 11° SW 07:18:05 60° SE 07:23:36 10° ENE visible
28 Jun 4.1 06:43:52 23° SSW 06:47:13 52° SE 06:52:40 10° ENE visible
29 Jun 4.3 06:14:59 38° S 06:16:21 46° SE 06:21:42 10° ENE visible
29 Jun 6.2 20:40:18 10° SW 20:40:37 10° SW 20:40:56 10° SW visible
30 Jun 4.6 05:46:06 39° ESE 05:46:06 39° ESE 05:50:43 10° ENE visible
30 Jun 4.8 07:27:02 10° W 07:31:50 29° NW 07:36:37 10° NNE visible
01 Jul 5.5 05:17:11 24° E 05:17:11 24° E 05:19:42 10° ENE visible
01 Jul 4.6 06:57:58 20° W 07:00:57 32° NW 07:05:56 10° NNE visible
02 Jul 6.4 04:48:14 12° E 04:48:14 12° E 04:48:40 10° ENE visible
02 Jul 4.3 06:29:01 34° WNW 06:30:05 37° NW 06:35:13 10° NNE visible
03 Jul 4.4 06:00:01 39° NNW 06:00:01 39° NNW 06:04:29 10° NNE visible
